EN

Hourly Weather Kyzylzhar

Today, 30 July, Friday

Time Temperature Precipitation Wind Pressure Humidity
00:00 +17°C° 0 mm 3 mps 717 mmHg 61%
01:00 +17°C° 0 mm 3 mps 717 mmHg 62%
02:00 +17°C° 0 mm 3 mps 717 mmHg 64%
03:00 +16°C° 0 mm 3 mps 717 mmHg 65%
04:00 +16°C° 0 mm 3 mps 717 mmHg 66%
05:00 +14°C° 0 mm 3 mps 718 mmHg 69%
06:00 +17°C° 0 mm 4 mps 718 mmHg 62%
07:00 +19°C° 0 mm 4 mps 719 mmHg 55%
08:00 +20°C° 0 mm 4 mps 719 mmHg 48%
09:00 +22°C° 0 mm 4 mps 719 mmHg 43%
10:00 +24°C° 0 mm 3 mps 720 mmHg 38%
11:00 +25°C° 0 mm 3 mps 720 mmHg 33%
12:00 +26°C° 0 mm 3 mps 720 mmHg 31%
13:00 +27°C° 0 mm 3 mps 720 mmHg 28%
14:00 +27°C° 0 mm 3 mps 720 mmHg 25%
15:00 +27°C° 0 mm 3 mps 720 mmHg 25%
16:00 +27°C° 0 mm 3 mps 720 mmHg 24%
17:00 +27°C° 0 mm 3 mps 720 mmHg 24%
18:00 +25°C° 0 mm 3 mps 720 mmHg 28%
19:00 +24°C° 0 mm 3 mps 720 mmHg 32%
20:00 +21°C° 0 mm 3 mps 720 mmHg 35%
21:00 +20°C° 0 mm 3 mps 720 mmHg 36%
22:00 +19°C° 0 mm 3 mps 720 mmHg 38%
23:00 +18°C° 0 mm 3 mps 720 mmHg 39%

Tomorrow, 31 July, Saturday

Time Temperature Precipitation Wind Pressure Humidity
00:00 +18°C° 0 mm 3 mps 720 mmHg 40%
01:00 +18°C° 0 mm 2 mps 720 mmHg 41%
02:00 +17°C° 0 mm 2 mps 720 mmHg 43%
03:00 +17°C° 0 mm 2 mps 720 mmHg 47%
04:00 +17°C° 0 mm 2 mps 719 mmHg 50%
05:00 +16°C° 0 mm 1 mps 719 mmHg 54%
06:00 +19°C° 0 mm 2 mps 720 mmHg 48%
07:00 +21°C° 0 mm 2 mps 720 mmHg 42%
08:00 +24°C° 0 mm 2 mps 720 mmHg 36%
09:00 +26°C° 0 mm 3 mps 720 mmHg 31%
10:00 +27°C° 0 mm 3 mps 720 mmHg 27%
11:00 +29°C° 0 mm 4 mps 720 mmHg 22%
12:00 +29°C° 0 mm 4 mps 720 mmHg 22%
13:00 +30°C° 0 mm 3 mps 720 mmHg 22%
14:00 +30°C° 0 mm 3 mps 720 mmHg 22%
15:00 +30°C° 0 mm 3 mps 720 mmHg 23%
16:00 +30°C° 0 mm 3 mps 720 mmHg 23%
17:00 +30°C° 0 mm 3 mps 719 mmHg 23%
18:00 +28°C° 0 mm 3 mps 719 mmHg 28%
19:00 +26°C° 0 mm 2 mps 719 mmHg 33%
20:00 +24°C° 0 mm 1 mps 719 mmHg 38%
21:00 +24°C° 0 mm 2 mps 719 mmHg 37%
22:00 +24°C° 0 mm 2 mps 719 mmHg 37%
23:00 +22°C° 0 mm 3 mps 719 mmHg 37%

Day after tomorrow, 1 August, Sunday

Time Temperature Precipitation Wind Pressure Humidity
00:00 +23°C° 0 mm 2 mps 719 mmHg 37%
01:00 +21°C° 0 mm 2 mps 718 mmHg 38%
02:00 +21°C° 0 mm 2 mps 718 mmHg 38%
03:00 +20°C° 0 mm 2 mps 718 mmHg 39%
04:00 +20°C° 0 mm 2 mps 718 mmHg 40%
05:00 +20°C° 0 mm 2 mps 718 mmHg 40%
06:00 +23°C° 0 mm 2 mps 719 mmHg 36%
07:00 +25°C° 0 mm 3 mps 719 mmHg 32%
08:00 +28°C° 0 mm 3 mps 719 mmHg 28%
09:00 +29°C° 0 mm 3 mps 719 mmHg 26%
10:00 +31°C° 0 mm 3 mps 719 mmHg 25%
11:00 +33°C° 0 mm 4 mps 718 mmHg 23%
12:00 +34°C° 0 mm 4 mps 718 mmHg 23%
13:00 +34°C° 0 mm 4 mps 718 mmHg 22%
14:00 +35°C° 0 mm 4 mps 718 mmHg 22%
15:00 +35°C° 0 mm 4 mps 717 mmHg 22%
16:00 +34°C° 0 mm 5 mps 717 mmHg 21%
17:00 +34°C° 0 mm 5 mps 717 mmHg 21%
18:00 +32°C° 0 mm 4 mps 717 mmHg 27%
19:00 +29°C° 0 mm 4 mps 717 mmHg 32%
20:00 +27°C° 0 mm 4 mps 717 mmHg 38%
21:00 +26°C° 0 mm 3 mps 717 mmHg 40%
22:00 +25°C° 0 mm 3 mps 717 mmHg 42%
23:00 +24°C° 0 mm 3 mps 717 mmHg 44%

2 August, Monday

Time Temperature Precipitation Wind Pressure Humidity
00:00 +24°C° 0 mm 3 mps 717 mmHg 45%
01:00 +22°C° 0 mm 3 mps 716 mmHg 46%
02:00 +23°C° 0 mm 2 mps 716 mmHg 46%
03:00 +23°C° 0 mm 2 mps 716 mmHg 48%
04:00 +21°C° 0 mm 2 mps 716 mmHg 49%
05:00 +21°C° 0 mm 2 mps 716 mmHg 50%
06:00 +24°C° 0 mm 1 mps 717 mmHg 44%
07:00 +27°C° 0 mm 1 mps 717 mmHg 39%
08:00 +29°C° 0 mm 1 mps 717 mmHg 33%
09:00 +31°C° 0 mm 2 mps 717 mmHg 31%
10:00 +32°C° 0 mm 2 mps 717 mmHg 29%
11:00 +34°C° 0 mm 3 mps 717 mmHg 27%
12:00 +35°C° 0 mm 4 mps 717 mmHg 27%
13:00 +35°C° 0 mm 5 mps 717 mmHg 27%
14:00 +35°C° 0 mm 5 mps 717 mmHg 26%
15:00 +35°C° 0 mm 6 mps 717 mmHg 27%
16:00 +35°C° 0 mm 6 mps 717 mmHg 28%
17:00 +34°C° 0 mm 6 mps 717 mmHg 28%
18:00 +32°C° 0 mm 5 mps 717 mmHg 33%
19:00 +29°C° 0 mm 5 mps 717 mmHg 38%
20:00 +27°C° 0 mm 4 mps 717 mmHg 42%
21:00 +26°C° 0 mm 4 mps 718 mmHg 47%
22:00 +25°C° 0 mm 3 mps 718 mmHg 52%
23:00 +22°C° 0 mm 3 mps 718 mmHg 56%

3 August, Tuesday

Time Temperature Precipitation Wind Pressure Humidity
00:00 +22°C° 0 mm 3 mps 718 mmHg 58%
01:00 +21°C° 0 mm 3 mps 718 mmHg 61%
02:00 +20°C° 0 mm 4 mps 718 mmHg 63%
03:00 +20°C° 0 mm 3 mps 718 mmHg 63%
04:00 +20°C° 0 mm 3 mps 718 mmHg 64%
05:00 +19°C° 0 mm 3 mps 719 mmHg 64%
06:00 +21°C° 0 mm 3 mps 719 mmHg 57%
07:00 +24°C° 0 mm 3 mps 719 mmHg 50%
08:00 +26°C° 0 mm 4 mps 720 mmHg 43%
09:00 +27°C° 0 mm 4 mps 720 mmHg 39%
10:00 +28°C° 0 mm 4 mps 720 mmHg 35%
11:00 +29°C° 0 mm 4 mps 720 mmHg 31%
12:00 +30°C° 0 mm 5 mps 720 mmHg 30%
13:00 +30°C° 0 mm 5 mps 720 mmHg 28%
14:00 +32°C° 0 mm 5 mps 720 mmHg 27%
15:00 +32°C° 0 mm 5 mps 720 mmHg 27%
16:00 +30°C° 0 mm 5 mps 719 mmHg 26%
17:00 +30°C° 0 mm 5 mps 719 mmHg 26%
18:00 +28°C° 0 mm 5 mps 719 mmHg 31%
19:00 +27°C° 0 mm 4 mps 719 mmHg 36%
20:00 +25°C° 0 mm 4 mps 720 mmHg 41%
21:00 +24°C° 0 mm 3 mps 720 mmHg 43%
22:00 +22°C° 0 mm 3 mps 720 mmHg 45%
23:00 +21°C° 0 mm 3 mps 720 mmHg 47%

4 August, Wednesday

Time Temperature Precipitation Wind Pressure Humidity
00:00 +20°C° 0 mm 3 mps 720 mmHg 49%
01:00 +20°C° 0 mm 2 mps 720 mmHg 51%
02:00 +19°C° 0 mm 2 mps 720 mmHg 53%
03:00 +20°C° 0 mm 1 mps 720 mmHg 54%
04:00 +19°C° 0 mm 1 mps 719 mmHg 56%
05:00 +17°C° 0 mm 0 mps 719 mmHg 58%
06:00 +21°C° 0 mm 1 mps 720 mmHg 51%
07:00 +24°C° 0 mm 1 mps 720 mmHg 45%
08:00 +26°C° 0 mm 2 mps 720 mmHg 38%
09:00 +28°C° 0 mm 2 mps 720 mmHg 37%
10:00 +29°C° 0 mm 3 mps 720 mmHg 35%
11:00 +30°C° 0 mm 4 mps 720 mmHg 33%
12:00 +32°C° 0 mm 4 mps 720 mmHg 32%
13:00 +32°C° 0 mm 4 mps 719 mmHg 31%
14:00 +33°C° 0 mm 4 mps 719 mmHg 29%
15:00 +33°C° 0 mm 5 mps 719 mmHg 29%
16:00 +33°C° 0 mm 6 mps 719 mmHg 29%
17:00 +33°C° 0 mm 7 mps 718 mmHg 29%
18:00 +30°C° 0 mm 6 mps 719 mmHg 36%
19:00 +27°C° 0 mm 5 mps 719 mmHg 44%
20:00 +25°C° 0 mm 5 mps 719 mmHg 51%
21:00 +23°C° 0 mm 4 mps 719 mmHg 56%
22:00 +22°C° 0 mm 3 mps 719 mmHg 60%
23:00 +21°C° 0 mm 3 mps 719 mmHg 64%
Show more